User: anonymous   Login
Location: Wildlife_Club
(35.6000°N, 81.4330°W)
Time: 12:42:57
(UTC-04:00)
Language:

Cosmos 1782 - Orbit

View from above orbital plane
View from above orbital plane
View from above satellite
View from above satellite

Ground track
Ground track

The orbit data is extracted from the following two-line orbital elements,

1 16986U 86074A   15107.47272806  .00003519  00000-0  24712-3 0  9992
2 16986 082.5096 170.6255 0012637 158.0330 202.1441 15.04789063551702
Epoch (UTC): 17 April 2015 11:20:43
Eccentricity: 0.0012637
inclination: 82.5096°
perigee height: 543 km
apogee height: 561 km
right ascension of ascending node: 170.6255°
argument of perigee: 158.0330°
revolutions per day: 15.04789063
mean anomaly at epoch: 202.1441°
orbit number at epoch: 55170

The dashed part of the orbit path shows where the satellite is in the earth's shadow,  

DLR